Location: Caltech
(34.1382°N, 118.1253°W)
Time: 01:43:15
(UTC-07:00)

Iridium 59 - Visible Passes

Search period start: 26 May 2016 00:00
Search period end: 05 June 2016 00:00
Orbit: 776 x 779 km, 86.4° (Epoch: 25 May)

Date Brightness Start Highest point End Pass type
(mag) Time Alt. Az. Time Alt. Az. Time Alt. Az.
26 May 7.3 01:03:07 10° NE 01:05:28 15° ENE 01:05:28 15° ENE visible
26 May 5.8 02:42:04 10° NNW 02:45:55 41° NW 02:45:55 41° NW visible
27 May 5.6 02:08:24 10° N 02:12:22 53° N 02:12:22 53° N visible
28 May 6.2 01:35:06 10° NNE 01:38:50 37° NE 01:38:50 37° NE visible
28 May 6.9 03:17:03 10° NW 03:19:17 16° WNW 03:19:17 16° WNW visible
29 May 7.0 01:02:17 10° NNE 01:05:17 21° ENE 01:05:17 21° ENE visible
29 May 6.3 02:42:28 10° NNW 02:45:45 28° WNW 02:45:45 28° WNW visible
30 May 7.6 00:30:49 10° ENE 00:31:45 11° ENE 00:31:45 11° ENE visible
30 May 5.8 02:08:32 10° N 02:12:13 44° NNW 02:12:13 44° NNW visible
31 May 6.0 01:35:01 10° N 01:38:42 45° NNE 01:38:42 45° NNE visible
31 May 7.3 03:18:48 10° WNW 03:19:10 10° WNW 03:19:10 10° WNW visible
01 Jun 6.6 01:01:53 10° NNE 01:05:11 29° NE 01:05:11 29° NE visible
01 Jun 6.8 02:43:05 10° NNW 02:45:39 20° WNW 02:45:39 20° WNW visible
02 Jun 7.2 00:29:23 10° NE 00:31:41 16° ENE 00:31:41 16° ENE visible
02 Jun 6.2 02:08:49 10° NNW 02:12:09 33° NW 02:12:09 33° NW visible
03 Jun 5.9 01:35:03 10° N 01:38:38 45° N 01:38:38 45° N visible
04 Jun 6.3 01:01:40 10° N 01:05:09 37° NE 01:05:09 37° NE visible
04 Jun 7.2 02:44:06 10° NW 02:45:37 14° WNW 02:45:37 14° WNW visible
